Home > Weather > Nuuk > Past weeks

Flag for Greenland Past Weather in Nuuk, Greenland — Yesterday and Last 2 Weeks

Now
34 °F

Partly sunny.


Feels Like: 27 °F
Forecast: 32 / 38 °F
Wind: 8 mph from Southwest

Location: Godthaab / Nuuk

Current Time: May 28, 2016 at 10:16:38 PM

Latest Report: May 28, 2016 at 9:50 PM


Visibility: N/A

Pressure: 30.01 "Hg

Humidity: 75%

Dew Point: 27 °F

Location of NuukLocation

Past Weather in Nuuk — Graph

°F

Nuuk Temperature Yesterday

Maximum temperature yesterday: 45 °F (at 3:50 PM)
Minimum temperature yesterday: 30 °F (at 1:50 AM)
Average temperature yesterday: 37 °F

High & Low Weather Summary for the Past Weeks

 TemperatureHumidityPressure
High63 °F (May 15, 11:50 AM)100% (May 16, 9:50 PM)30.09 "Hg (May 16, 9:50 PM)
Low30 °F (May 21, 6:50 AM)37% (May 15, 11:50 AM)29.39 "Hg (May 20, 2:50 AM)
Average38 °F80%29.78 "Hg
* Reported May 13 8:20 PM — May 28 8:50 PM, Nuuk, Weather by CustomWeather, © 2016

Note: Actual official high and low records may vary slightly from our data, if they occured in-between our weather recording intervals... More about our weather records

Advertising

Nuuk Weather History for the Previous 24 Hours

Scroll right to see more
 ConditionsComfort  
Time TempWeatherWind HumidityBarometerVisibility
8:50 PM
Sat, May 28
36 °FPartly sunny.7 mph75%29.98 "HgN/A
7:50 PM36 °FPartly sunny.8 mph75%29.98 "HgN/A
6:50 PM37 °FBroken clouds.10 mph65%29.98 "HgN/A
5:50 PM39 °FBroken clouds.12 mph61%29.95 "HgN/A
4:50 PM41 °FPartly sunny.14 mph61%29.95 "HgN/A
3:50 PM43 °FPartly sunny.13 mph61%29.95 "HgN/A
2:50 PM43 °FPartly sunny.12 mph66%29.92 "HgN/A
1:50 PM43 °FPartly sunny.10 mph66%29.92 "HgN/A
12:50 PM45 °FScattered clouds.7 mph49%29.92 "HgN/A
11:50 AM43 °FScattered clouds.8 mph53%29.92 "HgN/A
10:50 AM41 °FScattered clouds.6 mph66%29.92 "HgN/A
9:50 AM39 °FScattered clouds.7 mph70%29.92 "HgN/A
8:50 AM37 °FScattered clouds.7 mph75%29.92 "HgN/A
7:50 AM34 °FScattered clouds.9 mph87%29.92 "HgN/A
6:50 AM34 °FScattered clouds.9 mph87%29.92 "HgN/A
5:50 AM32 °FChilly.9 mph87%29.92 "HgN/A
4:50 AM30 °FPassing clouds.10 mph93%29.92 "HgN/A
3:50 AM30 °FChilly.9 mph93%29.92 "HgN/A
2:50 AM30 °FChilly.8 mph93%29.92 "HgN/A
1:50 AM30 °FChilly.7 mph93%29.92 "HgN/A
12:50 AM30 °FChilly.8 mph93%29.92 "HgN/A
11:50 PM
Fri, May 27
32 °FChilly.8 mph87%29.92 "HgN/A
10:50 PM34 °FChilly.8 mph81%29.92 "HgN/A
Weather by CustomWeather, © 2016

See weather overviewHow to use our weather pages